Regional Weather Roundup
Issued by NWS

Home | Current Version | Previous Version | Text Only | Print | Product List | Glossary Off
Versions: 1 2 3 4 5 6 7 8 9 10 11 12 13 14 15 16 17 18 19 20 21 22 23 24 25 26 27 28 29 30 31 32 33 34 35 36 37 38 39 40 41 42 43 44 45 46 47 48 49 50

000
ASUS45 KCYS 262110
RWRWY

WYOMING REGIONAL WEATHER ROUNDUP
NATIONAL WEATHER SERVICE CHEYENNE WY
200 PM MST THU FEB 26 2015

NOTE:  "FAIR" INDICATES FEW OR NO CLOUDS BELOW 12,000 FEET
WITH NO SIGNIFICANT WEATHER AND/OR OBSTRUCTIONS TO VISIBILITY.

WYZ001-262200-
YELLOWSTONE NATIONAL PARK

CITY           SKY/WX    TMP DP  RH WIND       PRES   REMARKS
LK YELLOWSTONE   N/A     21   0  39 VRB3      29.89F
W YELLOWSTONE  NOT AVBL

$$
WYZ002>013-054>058-071-098>099-262200-
NORTHERN WYOMING

CITY           SKY/WX    TMP DP  RH WIND       PRES   REMARKS
JACKSON        PTSUNNY   21  12  68 NE9       29.92F WCI  11
CODY           CLOUDY    12   9  85 NE13      30.14F WCI  -3
GREYBULL       CLOUDY    21   5  50 NW7       30.21F WCI  12
WORLAND        FLURRIES  18   7  62 CALM      30.19F
SHERIDAN       CLOUDY    10   0  63 VRB5      30.30F WCI   2
BUFFALO        CLOUDY     7   0  73 N5        30.21F WCI  -2
GILLETTE       FAIR       9  -3  58 NE5       30.26F WCI   1
HULETT         FAIR      10  -4  52 NE3       30.30F
NEWCASTLE      FAIR      16  -4  41 NW14      30.25F WCI   1

$$
WYZ014>020-022>026-101>103-262200-
CENTRAL WYOMING

CITY           SKY/WX    TMP DP  RH WIND       PRES   REMARKS
BIG PINEY      LGT SNOW  24  15  68 SE7       29.91F WCI  16
PINEDALE       FLURRIES  23  16  74 E7        29.92F WCI  15
DUBOIS         CLOUDY    14   7  73 SE13G18   29.94F HAZE    WCI   0
LANDER         LGT SNOW  15   7  70 NE9       30.07F WCI   3
RIVERTON       CLOUDY    14   5  67 E9        30.09F WCI   2
CASPER         CLOUDY    12   2  64 NE10      30.14F WCI  -1
DOUGLAS        CLOUDY    13   3  64 CALM      30.20F

$$
WYZ021-027>030-104>119-262200-
SOUTHERN WYOMING

CITY           SKY/WX    TMP DP  RH WIND       PRES   REMARKS
EVANSTON       LGT SNOW  27  23  85 E10       29.85F FOG     WCI  17
FORT BRIDGER   LGT SNOW  25  23  92 NE7       29.91F WCI  18
ROCK SPRINGS   CLOUDY    23  15  71 E14       29.92F WCI  11
DIXON          MOCLDY    29  18  61 CALM      29.93F
RAWLINS        CLOUDY    21  10  62 NE16      29.96F WCI   7
SARATOGA       CLOUDY    23  12  63 N8        29.93F WCI  14
LARAMIE        NOT AVBL
CHEYENNE       LGT SNOW  12   4  70 E8        30.08S VSB 1   WCI   0
TORRINGTON     CLOUDY    17   3  54 NE7       30.24F WCI   8
PINE BLUFFS    LGT SNOW  14   9  79 NE8       30.17S WCI   3

$$



USA.gov is the U.S. government's official web portal to all federal, state and local government web resources and services.